CW3007 Weather Reports


Display with metric or nautical units.
time (UTC)temp
F
wind
direction
speed
MPH
gust
MPH
rain 1hr
in
rain 24hr
in
rain mn
in
humidity
%
barometer
mb
20240520025651 79 117 1.0 4.0 0.00 0.00 0.00 72 1008.9
20240520024650 79 128 2.0 4.0 0.00 0.00 0.00 72 1008.9
20240520023651 80 142 1.0 6.0 0.00 0.00 0.00 73 1008.8
20240520022650 80 142 3.0 4.0 0.00 0.00 0.00 73 1008.7
20240520021651 80 132 3.0 4.0 0.00 0.00 0.00 72 1008.7
20240520020650 81 152 0.0 5.0 0.00 0.00 0.00 71 1008.6
20240520015650 82 140 3.0 5.0 0.00 0.00 0.00 70 1008.7
20240520014650 82 142 1.0 4.0 0.00 0.00 0.00 68 1008.7
20240520013650 83 144 2.0 5.0 0.00 0.00 0.00 67 1008.8
20240520012650 83 144 3.0 9.0 0.00 0.00 0.00 66 1008.7
20240520011650 84 132 3.0 6.0 0.00 0.00 0.00 64 1008.5
20240520010650 84 153 2.0 5.0 0.00 0.00 0.00 63 1008.6
20240520004650 86 143 1.0 9.0 0.00 0.00 0.00 62 1008.7
20240520003650 86 131 2.0 7.0 0.00 0.00 0.00 61 1008.7
20240520002650 87 129 4.0 9.0 0.00 0.00 0.00 60 1008.8
20240520001650 87 166 5.0 10.0 0.00 0.00 0.00 59 1008.8
20240520000650 88 150 5.0 12.0 0.00 0.00 0.00 58 1008.8
20240519235650 88 138 4.0 10.0 0.00 0.00 0.00 58 1008.8
20240519233650 88 130 4.0 9.0 0.00 0.00 0.00 57 1009.0
20240519232650 89 128 5.0 9.0 0.00 0.00 0.00 57 1009.2
20240519231650 89 166 7.0 11.0 0.00 0.00 0.00 56 1009.2
20240519230650 89 144 3.0 13.0 0.00 0.00 0.00 57 1009.2
20240519225650 89 130 8.0 9.0 0.00 0.00 0.00 56 1009.3
20240519224650 89 143 8.0 13.0 0.00 0.00 0.00 56 1009.4
20240519222650 90 119 1.0 10.0 0.00 0.00 0.00 57 1009.4
20240519221650 90 68 4.0 10.0 0.00 0.00 0.00 56 1009.6
20240519220650 90 153 3.0 10.0 0.00 0.00 0.00 54 1009.7
20240519215650 90 206 4.0 11.0 0.00 0.00 0.00 57 1009.8
20240519214650 89 86 5.0 11.0 0.00 0.00 0.00 57 1009.8
20240519212650 90 160 6.0 11.0 0.00 0.00 0.00 55 1010.0
20240519211650 90 107 7.0 12.0 0.00 0.00 0.00 57 1010.1
20240519210650 90 211 6.0 11.0 0.00 0.00 0.00 58 1010.2
20240519203650 89 207 7.0 13.0 0.00 0.00 0.00 58 1010.9
20240519202650 89 126 4.0 12.0 0.00 0.00 0.00 58 1011.0
20240519200650 89 197 7.0 12.0 0.00 0.00 0.00 58 1011.2
20240519195650 89 132 3.0 11.0 0.00 0.00 0.00 59 1011.4
20240519194650 89 144 5.0 12.0 0.00 0.00 0.00 56 1011.5
20240519193650 88 123 7.0 14.0 0.00 0.00 0.00 58 1011.6
20240519192650 88 111 8.0 13.0 0.00 0.00 0.00 59 1011.7
20240519191650 88 137 4.0 16.0 0.00 0.00 0.00 59 1011.8
20240519190650 88 167 11.0 11.0 0.00 0.00 0.00 59 1011.8
20240519185650 88 139 4.0 14.0 0.00 0.00 0.00 61 1011.8
20240519184650 87 131 3.0 14.0 0.00 0.00 0.00 62 1011.9
20240519182650 87 140 2.0 14.0 0.00 0.00 0.00 63 1012.3
20240519181650 87 188 11.0 16.0 0.00 0.00 0.00 62 1012.4
20240519175650 86 158 7.0 16.0 0.00 0.00 0.00 63 1012.7
20240519174650 86 170 7.0 13.0 0.00 0.00 0.00 65 1012.9
20240519173650 85 184 6.0 14.0 0.00 0.00 0.00 66 1013.0
20240519171650 85 166 4.0 12.0 0.00 0.00 0.00 68 1013.4
20240519170650 84 182 6.0 11.0 0.00 0.00 0.00 67 1013.6
20240519165650 84 106 3.0 13.0 0.00 0.00 0.00 67 1013.6
20240519164650 84 146 6.0 14.0 0.00 0.00 0.00 67 1013.6
20240519162650 83 198 8.0 11.0 0.00 0.00 0.00 69 1013.8
20240519161650 83 174 3.0 12.0 0.00 0.00 0.00 70 1013.8
20240519160650 83 188 9.0 16.0 0.00 0.00 0.00 70 1013.9
20240519155650 82 157 6.0 12.0 0.00 0.00 0.00 71 1013.8
20240519154650 82 197 7.0 14.0 0.00 0.00 0.00 72 1013.8
20240519153650 81 114 8.0 13.0 0.00 0.00 0.00 73 1013.9
20240519152650 80 194 7.0 15.0 0.00 0.00 0.00 74 1014.0
20240519150649 80 150 5.0 12.0 0.00 0.00 0.00 76 1014.1
20240519145649 79 192 6.0 14.0 0.00 0.00 0.00 76 1014.2
20240519144650 79 200 9.0 12.0 0.00 0.00 0.00 76 1014.2
20240519143650 79 161 5.0 9.0 0.00 0.00 0.00 79 1014.1
20240519142650 78 217 3.0 10.0 0.00 0.00 0.00 79 1014.1
20240519141650 78 175 8.0 12.0 0.00 0.00 0.00 79 1014.1
20240519134651 76 194 3.0 10.0 0.00 0.00 0.00 82 1013.7
20240519133650 76 175 11.0 11.0 0.00 0.00 0.00 82 1013.6
20240519132650 75 188 7.0 10.0 0.00 0.00 0.00 83 1013.6
20240519130649 74 200 5.0 11.0 0.00 0.00 0.00 85 1013.4
20240519125649 74 190 3.0 8.0 0.00 0.00 0.00 86 1013.4
20240519124649 74 172 2.0 7.0 0.00 0.00 0.00 86 1013.4
20240519123649 74 129 0.0 5.0 0.00 0.00 0.00 87 1013.1
20240519122649 74 190 4.0 7.0 0.00 0.00 0.00 87 1013.2
20240519121649 74 168 1.0 8.0 0.00 0.00 0.00 87 1012.8
20240519120650 74 159 2.0 10.0 0.00 0.00 0.00 87 1012.2
20240519114649 74 194 6.0 9.0 0.00 0.00 0.00 87 1012.3
20240519113649 74 148 2.0 9.0 0.00 0.00 0.00 86 1012.3
20240519112649 74 188 6.0 11.0 0.00 0.00 0.00 86 1012.1
20240519111649 74 140 4.0 11.0 0.00 0.00 0.00 87 1012.0
20240519110650 75 139 4.0 7.0 0.00 0.00 0.00 87 1011.8
20240519105650 75 197 3.0 8.0 0.00 0.00 0.00 87 1011.7
20240519104650 74 209 5.0 9.0 0.00 0.00 0.00 88 1011.8
20240519102649 74 178 6.0 9.0 0.00 0.00 0.00 88 1011.5
20240519101649 74 148 4.0 5.0 0.00 0.00 0.00 88 1011.4
20240519100649 75 145 3.0 7.0 0.00 0.00 0.00 88 1011.3
20240519094649 75 131 2.0 6.0 0.00 0.00 0.00 88 1011.2
20240519093650 75 129 1.0 6.0 0.00 0.00 0.00 88 1011.0
20240519092649 75 138 4.0 9.0 0.00 0.00 0.00 87 1010.7
20240519091649 76 161 2.0 7.0 0.00 0.00 0.00 87 1010.6
20240519085649 76 144 6.0 11.0 0.00 0.00 0.00 87 1010.4
20240519084649 76 152 5.0 9.0 0.00 0.00 0.00 87 1010.5
20240519083649 76 163 4.0 6.0 0.00 0.00 0.00 87 1010.4
20240519082649 76 177 3.0 8.0 0.00 0.00 0.00 86 1010.5
20240519081649 76 156 5.0 5.0 0.00 0.00 0.00 86 1010.5
20240519080649 76 188 4.0 7.0 0.00 0.00 0.00 86 1010.5
20240519074649 76 188 1.0 5.0 0.00 0.00 0.00 85 1010.6
20240519073649 76 147 2.0 5.0 0.00 0.00 0.00 84 1010.6
20240519072649 76 126 2.0 5.0 0.00 0.00 0.00 83 1010.6
20240519071649 76 174 5.0 5.0 0.00 0.00 0.00 83 1010.7
20240519070649 76 138 0.0 5.0 0.00 0.00 0.00 83 1010.8
20240519065649 77 161 4.0 8.0 0.00 0.00 0.00 82 1010.8
20240519064649 77 157 1.0 6.0 0.00 0.00 0.00 82 1010.9
20240519063649 77 184 4.0 7.0 0.00 0.00 0.00 81 1010.8